• Join FlightAware (Why Join?)
  • Login
  • US Flag GB Flag 
09:51 EDT


 

Airport Tracker/Info


-or-


 

Live Flight TrackerFlight Track Log ✈ CPT7773 ✈ 29-Aug-2013 ✈ KCOD - KCPR

Flight Track Log - Related Links

Times and Time Zones

All times are in EDT time to prevent confusion due to time zone crossing. See the CPT7773 flight status page for this flight to view local times or setup timezone preferences in your user account.

Time Position Orientation Groundspeed Altitude Reporting Facility
EDT Latitude Longitude Course Direction KTS MPH feet Rate Location/Type
20:10 44.4011 -108.8150 129° Southeast 126 145 10,400  Level Salt Lake Center
20:11 44.3783 -108.7756 129° Southeast 129 148 11,200 780 Climbing Salt Lake Center
20:12 44.3564 -108.7400 131° Southeast 126 145 12,100 480 Climbing Salt Lake Center
20:13 44.3292 -108.6992 133° Southeast 131 151 12,200  Climbing Salt Lake Center
20:14 44.2964 -108.6447 130° Southeast 152 175 12,200  Level Salt Lake Center
20:15 44.2544 -108.5769 131° Southeast 176 203 12,200  Level Salt Lake Center
20:16 44.2211 -108.5222 130° Southeast 184 212 12,200  Level Salt Lake Center
20:17 44.1892 -108.4697 130° Southeast 183 211 12,200  Level Salt Lake Center
20:18 44.1589 -108.4189 130° Southeast 179 206 12,200  Level Salt Lake Center
20:19 44.1297 -108.3697 130° Southeast 173 199 12,200  Level Salt Lake Center
20:20 44.0933 -108.3131 132° Southeast 169 194 12,200  Level Salt Lake Center
20:21 44.0633 -108.2642 130° Southeast 167 192 12,200  Level Salt Lake Center
20:22 44.0339 -108.2150 130° Southeast 166 191 12,200 -180 Level Salt Lake Center
20:23 44.0036 -108.1661 131° Southeast 166 191 11,900 -120 Descending Salt Lake Center
20:24 43.9722 -108.1161 131° Southeast 169 194 12,000  Climbing Salt Lake Center
20:25 43.9406 -108.0667 132° Southeast 170 196 11,900  Descending Salt Lake Center
20:26 43.9036 -108.0075 131° Southeast 170 196 12,000  Climbing Salt Lake Center
20:27 43.8717 -107.9567 131° Southeast 172 198 12,000  Level Salt Lake Center
20:29 43.8372 -107.9075 134° Southeast 175 201 12,000  Level Salt Lake Center
20:30 43.8075 -107.8583 130° Southeast 173 199 12,000  Level Salt Lake Center
20:31 43.7822 -107.8125 127° Southeast 163 188 12,000  Level Salt Lake Center
20:32 43.7458 -107.7572 132° Southeast 161 185 12,000  Level Salt Lake Center
20:33 43.7122 -107.7089 134° Southeast 166 191 12,100  Climbing Salt Lake Center
20:34 43.6803 -107.6572 131° Southeast 171 197 12,100 -60 Level Salt Lake Center
20:35 43.6483 -107.6067 131° Southeast 174 200 12,000 -60 Descending Salt Lake Center
20:36 43.6161 -107.5572 132° Southeast 174 200 12,000  Level Salt Lake Center
20:37 43.5847 -107.5083 132° Southeast 173 199 12,000 -60 Level Salt Lake Center
20:38 43.5467 -107.4497 132° Southeast 171 197 11,900  Descending Salt Lake Center
20:39 43.5153 -107.3986 130° Southeast 173 199 12,000  Climbing Salt Lake Center
20:40 43.4842 -107.3497 131° Southeast 172 198 12,000  Level Salt Lake Center
20:41 43.4539 -107.3019 131° Southeast 171 197 12,100 60 Climbing Salt Lake Center
20:42 43.4261 -107.2583 131° Southeast 161 185 12,200  Climbing Salt Lake Center
20:43 43.3961 -107.2142 133° Southeast 158 182 12,100 -120 Descending Salt Lake Center
20:44 43.3594 -107.1561 131° Southeast 165 190 12,000 -60 Descending Salt Lake Center
20:45 43.3281 -107.1086 132° Southeast 168 193 12,000  Level Salt Lake Center
20:46 43.2967 -107.0617 133° Southeast 168 193 12,000  Level Salt Lake Center
20:47 43.2656 -107.0142 132° Southeast 167 192 12,000  Level Salt Lake Center
20:48 43.2372 -106.9672 130° Southeast 163 188 12,100  Climbing Salt Lake Center
20:49 43.2014 -106.9139 133° Southeast 164 189 12,000 -60 Descending Salt Lake Center
20:50 43.1706 -106.8675 132° Southeast 169 194 12,000 -120 Level Salt Lake Center
20:51 43.1344 -106.8147 133° Southeast 170 196 11,800 -300 Descending Salt Lake Center
20:52 43.1044 -106.7681 131° Southeast 171 197 11,400 -900 Descending Salt Lake Center
20:53 43.0639 -106.7086 133° Southeast 185 213 10,000 -1,260 Descending Salt Lake Center
20:54 43.0306 -106.6536 130° Southeast 191 220 8,800 -1,080 Descending Salt Lake Center
20:55 43.0003 -106.5981 127° Southeast 193 222 7,800 -780 Descending Salt Lake Center
20:56 42.9689 -106.5400 126° Southeast 188 216 7,200 -600 Descending Salt Lake Center